GSAT-9 (42695 NORAD) Tracking and Keplerian Element Data

This shows tracking and keplerian element data for the satellite.

Feedback or suggestion? Click here.




ElementValue
Catalog42695
NameGSAT-9
Epoch Orbit501
Epoch Day265.72535716
Epoch Year2018
RAAN278.3193
Inclination0.1068
Eccentricity0.0001777
Argument of Perigee250.5505
Mean Anonmoly191.1489
Mean Motion1.00274338
Decay Rate-3.01E-06
L11 42695U 17024A 18265.72535716 -.00000301 00000-0 00000-0 0 9993
L22 42695 0.1068 278.3193 0001777 250.5505 191.1489 1.00274338 5017

Live tracking and technical data element details for GSAT-9 (NORAD 42695). GSAT-9 can be tracked NOW for your location showing map with azimuth and elevation plus other details from your city location.

Track the satellite on the map from your city or location and see movement details for azimuth, elevation, latitude, longitude, range, height, and movement on the map or in text.







IsCatalogInMostPopularTable: catalog: 42695, numindb: 103
Update: records affected: 1



GetName: 42695 GSAT-9

Hit Count: updated at: Tue, 25 Sep 2018 14:44:24 GMT